Location: Laguna de la Cañada del Gallo
(40.3974°N, 5.2096°W)
Time: 06:03:08
(UTC+00:00)

CARTOSAT-1 - Visible Passes

Search period start: 16 July 2024 00:00
Search period end: 26 July 2024 00:00
Orbit: 606 x 607 km, 97.6° (Epoch: 15 July)

Date Brightness Start Highest point End Pass type
(mag) Time Alt. Az. Time Alt. Az. Time Alt. Az.
16 Jul 6.2 21:23:55 10° SW 21:26:30 16° W 21:29:05 10° NW visible
17 Jul 6.4 21:38:41 10° WSW 21:39:49 11° W 21:40:57 10° WNW visible
18 Jul 3.5 20:12:28 10° SSE 20:16:43 87° E 20:21:00 10° NNW visible
19 Jul 3.9 20:25:40 10° S 20:29:53 66° WSW 20:34:08 10° NNW visible
20 Jul 4.6 20:38:59 10° S 20:43:04 46° W 20:47:11 10° NNW visible
21 Jul 5.2 20:52:27 10° SSW 20:56:16 32° W 21:00:08 10° NNW visible
22 Jul 5.7 21:06:06 10° SSW 21:09:30 23° W 21:12:56 10° NW visible
23 Jul 6.1 21:20:00 10° SW 21:22:44 17° W 21:25:31 10° NW visible
24 Jul 6.4 21:34:24 10° WSW 21:36:01 12° W 21:37:38 10° WNW visible
25 Jul 3.5 20:08:40 10° SSE 20:12:54 80° ENE 20:17:11 10° N visible
